This is the latest recevied weather packets stored in our database for station/object W4MLN-1. If no packets are shown the sender has not sent any weather packets the latest 10 day(s).
| Time | Temp. | Humidity | Pressure | Rain* | Wind** | Luminosity | Snow |
|---|---|---|---|---|---|---|---|
| 1777496256 | 20.56° C | 69% | 1010.2 hPa | 0 mm | - | 260 W/m² | - |
| 1777495956 | 20.56° C | 70% | 1010.2 hPa | 0 mm | - | 388 W/m² | - |
| 1777495056 | 20.56° C | 69% | 1010.1 hPa | 0 mm | - | 584 W/m² | - |
| 1777494756 | 20.56° C | 70% | 1010.2 hPa | 0 mm | - | 502 W/m² | - |
| 1777494456 | 20.56° C | 70% | 1010.4 hPa | 0 mm | - | 536 W/m² | - |
| 1777494156 | 20° C | 72% | 1010.4 hPa | 0 mm | - | 874 W/m² | - |
| 1777493857 | 20° C | 71% | 1010.4 hPa | 0 mm | - | 674 W/m² | - |
| 1777493553 | 20° C | 72% | 1010.6 hPa | 0 mm | - | 251 W/m² | - |
| 1777493254 | 20° C | 72% | 1010.6 hPa | 0 mm | - | 546 W/m² | - |
| 1777492950 | 20.56° C | 72% | 1010.6 hPa | 0 mm | - | 820 W/m² | - |
| 1777492048 | 20° C | 72% | 1010.8 hPa | 0 mm | - | 778 W/m² | - |
| 1777491448 | 19.44° C | 74% | 1010.9 hPa | 0 mm | - | 453 W/m² | - |
| 1777491148 | 19.44° C | 76% | 1010.9 hPa | 0 mm | - | 541 W/m² | - |
| 1777490849 | 19.44° C | 75% | 1011 hPa | 0 mm | - | 263 W/m² | - |
| 1777490548 | 20° C | 73% | 1011 hPa | 0 mm | - | 226 W/m² | - |
| 1777490249 | 20° C | 73% | 1011 hPa | 0 mm | - | 357 W/m² | - |
| 1777489945 | 20° C | 73% | 1011 hPa | 0 mm | - | 368 W/m² | - |
| 1777489646 | 19.44° C | 74% | 1011 hPa | 0 mm | - | 477 W/m² | - |
| 1777489046 | 20° C | 73% | 1011.1 hPa | 0 mm | - | 360 W/m² | - |
| 1777487846 | 20° C | 72% | 1011.1 hPa | 0 mm | - | 539 W/m² | - |
| 1777487546 | 20° C | 72% | 1011.2 hPa | 0 mm | - | 388 W/m² | - |
| 1777486946 | 20° C | 73% | 1011.3 hPa | 0 mm | - | 238 W/m² | - |
| 1777486643 | 20.56° C | 71% | 1011.3 hPa | 0 mm | - | 349 W/m² | - |
| 1777486344 | 20.56° C | 71% | 1011.3 hPa | 0 mm | - | 529 W/m² | - |
| 1777485744 | 20° C | 71% | 1011.5 hPa | 0 mm | - | 821 W/m² | - |
* Rain latest hour (hover to see other rain measurements)
** Current wind speed in m/s (hover to see current wind gust speed)